HULIANWANG DIGUI 13C

Last updated on Wed Dec 10 2025 00:02:06 GMT+0000 (Coordinated Universal Time)

1 66414U 25258C 25343.13973457 .00000711 00000+0 41184-3 0 9998 2 66414 50.0081 277.2503 0004706 342.5024 17.5724 14.19246085 4145
UTC large
Height (km)
Speed (km/s)
/
Latitude / Longitude
Inclination (degrees)
Orbital Period (minutes)
Azimuth
Elevation
Range (km)
Doppler Factor

Next 0 passes for location: London (51.5072 / 0.1276)

Sorry there are no passes over London.